VK2OU Weather Reports


Display with metric or nautical units.
time (UTC)temp
F
wind
direction
speed
MPH
gust
MPH
rain 1hr
in
rain 24hr
in
rain mn
in
humidity
%
barometer
mb
20221006132039 53 35 1.0 2.0 0.00 0.40 0.00 89
20221006131103 53 45 0.0 1.0 0.00 0.41 0.00 89
20221006130040 53 63 1.0 3.0 0.00 0.41 0.00 89
20221006125103 53 44 2.0 2.0 0.00 0.41 0.41 89
20221006124040 53 33 2.0 4.0 0.00 0.41 0.41 89
20221006123103 54 17 3.0 5.0 0.00 0.43 0.41 89
20221006122059 54 48 3.0 4.0 0.00 0.43 0.41 88
20221006121103 54 23 2.0 3.0 0.00 0.44 0.41 88
20221006120039 54 17 2.0 3.0 0.00 0.44 0.41 88
20221006115103 54 347 1.0 2.0 0.00 0.45 0.41 88
20221006114039 54 17 2.0 2.0 0.00 0.45 0.41 88
20221006113104 54 33 2.0 4.0 0.00 0.46 0.41 88
20221006112040 54 48 3.0 4.0 0.00 0.46 0.41 88
20221006111103 54 43 2.0 5.0 0.00 0.47 0.41 88
20221006110040 54 27 2.0 3.0 0.00 0.47 0.41 88
20221006105124 54 32 4.0 5.0 0.00 0.48 0.41 88
20221006104039 54 29 3.0 5.0 0.00 0.48 0.41 88
20221006103103 54 30 3.0 5.0 0.00 0.48 0.41 88
20221006102039 55 32 4.0 8.0 0.00 0.50 0.41 88
20221006101104 55 37 3.0 5.0 0.00 0.50 0.41 88
20221006100059 55 24 3.0 5.0 0.00 0.50 0.41 88
20221006095103 55 48 3.0 5.0 0.00 0.50 0.41 88
20221006094039 55 36 3.0 4.0 0.00 0.50 0.41 88
20221006093123 55 48 4.0 6.0 0.00 0.50 0.41 88
20221006092039 55 52 3.0 4.0 0.00 0.50 0.41 88
20221006091103 55 23 2.0 3.0 0.00 0.50 0.41 88
20221006090040 55 53 2.0 3.0 0.00 0.50 0.41 88
20221006085104 55 60 2.0 3.0 0.00 0.51 0.41 88
20221006084059 55 45 1.0 1.0 0.00 0.51 0.41 87
20221006083123 55 26 1.0 2.0 0.00 0.51 0.41 87
20221006082059 55 96 1.0 2.0 0.01 0.52 0.41 87
20221006081124 55 0.0 0.0 0.01 0.52 0.41 86
20221006080039 56 132 1.0 2.0 0.01 0.52 0.41 86
20221006075105 56 90 1.0 2.0 0.01 0.52 0.41 85
20221006074040 56 129 1.0 3.0 0.01 0.53 0.41 85
20221006073103 56 90 1.0 2.0 0.01 0.53 0.41 84
20221006072039 56 113 1.0 2.0 0.00 0.52 0.40 83
20221006071143 57 115 2.0 3.0 0.00 0.52 0.40 82
20221006070039 57 96 1.0 2.0 0.00 0.52 0.40 80
20221006065123 57 45 1.0 2.0 0.00 0.52 0.40 78
20221006064059 58 90 1.0 2.0 0.00 0.52 0.40 78
20221006063103 58 45 1.0 2.0 0.00 0.52 0.40 78
20221006062039 58 77 1.0 2.0 0.00 0.53 0.40 77
20221006061103 59 74 1.0 2.0 0.00 0.53 0.40 75
20221006060039 60 90 1.0 2.0 0.00 0.53 0.40 74
20221006055103 61 71 2.0 2.0 0.00 0.53 0.40 75
20221006054039 60 52 1.0 2.0 0.00 0.53 0.40 79
20221006053103 60 0 1.0 1.0 0.00 0.54 0.40 82
20221006052039 59 6 0.0 1.0 0.00 0.54 0.40 84
20221006051103 58 45 1.0 2.0 0.00 0.54 0.40 85
20221006050039 57 45 0.0 1.0 0.00 0.56 0.40 85
20221006045104 57 71 1.0 2.0 0.00 0.57 0.40 87
20221006044039 57 38 1.0 2.0 0.00 0.57 0.40 90
20221006043103 56 38 3.0 4.0 0.00 0.58 0.40 91
20221006042040 56 48 3.0 4.0 0.00 0.59 0.40 92
20221006041104 56 45 3.0 5.0 0.00 0.59 0.40 92
20221006040039 55 58 2.0 3.0 0.00 0.60 0.40 91
20221006035103 54 33 3.0 4.0 0.00 0.60 0.40 91
20221006034059 54 52 3.0 5.0 0.00 0.60 0.40 91
20221006033103 54 31 3.0 5.0 0.01 0.61 0.40 91
20221006032059 54 64 4.0 5.0 0.01 0.61 0.40 91
20221006031103 54 63 3.0 5.0 0.01 0.63 0.40 91
20221006030039 54 21 2.0 4.0 0.01 0.63 0.40 91
20221006025103 53 36 2.0 2.0 0.01 0.63 0.40 92
20221006024127 53 23 3.0 3.0 0.02 0.63 0.40 92
20221006023239 53 45 2.0 2.0 0.01 0.63 0.39 91
20221006022039 53 19 2.0 3.0 0.01 0.63 0.39 91
20221006021104 53 55 3.0 5.0 0.01 0.63 0.39 91
20221006020039 52 76 3.0 5.0 0.01 0.63 0.39 91
20221006015103 52 51 4.0 6.0 0.02 0.63 0.39 91
20221006014039 52 50 3.0 5.0 0.01 0.61 0.38 91
20221006013103 51 69 2.0 3.0 0.02 0.61 0.38 92
20221006012039 51 45 3.0 5.0 0.02 0.61 0.38 92
20221006011103 51 116 1.0 2.0 0.02 0.61 0.38 92
20221006010039 51 138 1.0 2.0 0.02 0.61 0.38 91
20221006005103 51 135 1.0 2.0 0.02 0.60 0.37 91
20221006004059 51 143 1.0 2.0 0.04 0.60 0.37 91
20221006003103 51 180 0.0 1.0 0.02 0.60 0.35 91
20221006002039 51 155 2.0 2.0 0.04 0.60 0.35 91
20221006001104 51 122 1.0 2.0 0.04 0.60 0.35 91
20221006000039 51 151 1.0 2.0 0.04 0.60 0.35 91
20221005235103 51 115 2.0 3.0 0.02 0.59 0.34 90
20221005234039 51 103 1.0 3.0 0.01 0.58 0.33 90
20221005233103 51 106 2.0 3.0 0.01 0.58 0.33 90
20221005232039 50 66 2.0 3.0 0.00 0.57 0.32 90
20221005231103 50 65 2.0 2.0 0.00 0.57 0.32 90
20221005230039 50 76 2.0 4.0 0.00 0.57 0.32 90
20221005225103 50 63 5.0 8.0 0.00 0.57 0.32 91
20221005224127 50 35 3.0 4.0 0.01 0.57 0.32 91
20221005223123 50 60 7.0 9.0 0.01 0.57 0.32 92
20221005222039 49 85 4.0 5.0 0.01 0.57 0.32 92
20221005221104 49 92 5.0 6.0 0.01 0.57 0.32 92
20221005220059 49 98 3.0 5.0 0.01 0.57 0.32 92
20221005215103 49 60 2.0 5.0 0.01 0.57 0.32 92
20221005214039 49 103 2.0 2.0 0.00 0.56 0.31 92
20221005213124 48 90 0.0 1.0 0.01 0.56 0.31 92
20221005212039 48 128 1.0 2.0 0.01 0.57 0.31 93
20221005211103 48 132 1.0 2.0 0.01 0.57 0.31 93
20221005210039 48 135 1.0 2.0 0.01 0.57 0.31 93
20221005205123 48 98 2.0 3.0 0.01 0.57 0.31 92
20221005204039 48 90 3.0 5.0 0.01 0.57 0.31 92
20221005203151 47 110 2.0 3.0 0.01 0.56 0.30 92
20221005202039 47 122 1.0 2.0 0.02 0.56 0.30 92
20221005201103 47 176 1.0 2.0 0.04 0.56 0.30 92
20221005200038 47 113 2.0 2.0 0.04 0.56 0.30 92
20221005195103 47 118 2.0 4.0 0.05 0.56 0.30 92
20221005194059 47 143 1.0 2.0 0.05 0.56 0.30 92
20221005193103 47 163 2.0 3.0 0.04 0.54 0.28 92
20221005192039 46 135 1.0 2.0 0.02 0.53 0.27 92
20221005191103 46 124 2.0 4.0 0.01 0.52 0.26 92
20221005190059 46 113 4.0 5.0 0.01 0.52 0.26 92
20221005185103 46 100 4.0 5.0 0.01 0.51 0.25 92
20221005184043 46 115 5.0 5.0 0.01 0.51 0.25 91
20221005183103 46 116 4.0 6.0 0.01 0.51 0.25 91
20221005182039 46 113 4.0 5.0 0.01 0.51 0.25 91
20221005181103 46 116 4.0 5.0 0.02 0.51 0.25 92
20221005180039 46 107 4.0 6.0 0.02 0.51 0.25 92
20221005175102 46 104 4.0 5.0 0.02 0.50 0.24 92
20221005174039 46 123 4.0 5.0 0.04 0.50 0.24 92
20221005173123 46 115 4.0 7.0 0.05 0.50 0.24 91
20221005172039 46 106 4.0 5.0 0.06 0.50 0.24 91
20221005171103 46 104 5.0 6.0 0.06 0.48 0.22 91
20221005170100 46 92 6.0 6.0 0.06 0.48 0.22 91
20221005165103 46 97 6.0 8.0 0.05 0.47 0.21 91
20221005164038 46 108 5.0 7.0 0.05 0.46 0.20 91
20221005163103 46 90 5.0 7.0 0.05 0.45 0.19 91
20221005162039 46 94 7.0 9.0 0.05 0.45 0.18 91
20221005161103 46 113 6.0 7.0 0.05 0.44 0.17 91
20221005160039 46 100 7.0 9.0 0.06 0.45 0.17 91
20221005155123 46 114 6.0 8.0 0.08 0.45 0.17 91
20221005154059 46 112 6.0 7.0 0.07 0.44 0.15 91
20221005153123 46 114 5.0 7.0 0.07 0.43 0.14 91
20221005152039 46 109 5.0 6.0 0.08 0.41 0.13 90
20221005151105 46 124 6.0 8.0 0.08 0.40 0.12 90
20221005150039 46 112 6.0 9.0 0.08 0.39 0.11 89
20221005145103 46 120 4.0 5.0 0.06 0.37 0.08 89
20221005144039 47 133 5.0 5.0 0.07 0.37 0.08 88
20221005143103 47 122 3.0 4.0 0.06 0.35 0.07 87
20221005142039 47 103 4.0 6.0 0.04 0.33 0.05 87
20221005141103 47 109 4.0 5.0 0.04 0.32 0.04 86
20221005140039 47 92 4.0 5.0 0.02 0.31 0.02 86
20221005135102 47 105 7.0 8.0 0.02 0.31 0.02 86
20221005134059 47 95 6.0 8.0 0.01 0.30 0.01 86
20221005133106 47 90 7.0 9.0 0.02 0.30 0.01 86